KC3ROS Weather Reports


time (UTC)temp
C
wind
direction
speed
KPH
gust
KPH
rain 1hr
cm
rain 24hr
cm
rain mn
cm
humidity
%
barometer
mb
20260503190644 14 267 8.0 12.9 0.00 0.00 0.00 41 1013.8
20260503190141 13 252 6.4 12.9 0.00 0.00 0.00 43 1013.8
20260503185637 15 165 3.2 20.9 0.00 0.00 0.00 39 1013.8
20260503185133 14 309 4.8 9.7 0.00 0.00 0.00 40 1013.7
20260503184628 13 244 8.0 24.1 0.00 0.00 0.00 43 1014.0
20260503184125 12 246 22.5 22.5 0.00 0.00 0.00 45 1014.3
20260503183621 12 311 6.4 14.5 0.00 0.00 0.00 49 1013.8
20260503183119 12 63 6.4 11.3 0.00 0.00 0.00 45 1014.3
20260503182617 14 238 6.4 12.9 0.00 0.00 0.00 43 1014.0
20260503182115 13 207 4.8 17.7 0.00 0.00 0.00 40 1014.4
20260503181611 13 229 6.4 9.7 0.00 0.00 0.00 45 1014.3
20260503181108 13 183 4.8 14.5 0.00 0.00 0.00 40 1014.4
20260503180605 13 262 12.9 25.7 0.00 0.00 0.00 41 1014.2
20260503180103 14 263 12.9 25.7 0.00 0.00 0.00 41 1014.3
20260503175600 13 264 4.8 12.9 0.00 0.00 0.00 40 1014.5
20260503175057 12 297 4.8 12.9 0.00 0.00 0.00 48 1014.6
20260503174553 12 200 3.2 9.7 0.00 0.00 0.00 47 1014.7
20260503174050 13 230 9.7 12.9 0.00 0.00 0.00 41 1014.8
20260503173545 12 267 4.8 14.5 0.00 0.00 0.00 45 1014.8
20260503173042 12 155 9.7 17.7 0.00 0.00 0.00 44 1014.8
20260503172539 13 223 6.4 22.5 0.00 0.00 0.00 45 1014.8
20260503172036 12 124 0.0 8.0 0.00 0.00 0.00 46 1014.8
20260503171533 12 177 4.8 17.7 0.00 0.00 0.00 45 1015.1
20260503171030 13 222 8.0 16.1 0.00 0.00 0.00 49 1015.0
20260503170526 11 243 8.0 9.7 0.00 0.00 0.00 49 1014.8
20260503150913 9 211 12.9 16.1 0.00 0.00 0.00 47 1015.8
20260503150409 10 196 4.8 24.1 0.00 0.00 0.00 45 1015.8
20260503131303 6 260 4.8 19.3 0.00 0.00 0.00 74 1016.5
20260503130800 5 147 3.2 4.8 0.00 0.00 0.00 75 1016.5
20260503130257 5 139 4.8 11.3 0.00 0.00 0.00 77 1016.5
20260503110645 0 134 3.2 6.4 0.00 0.00 0.00 95 1015.4
20260503110142 0 125 4.8 6.4 0.00 0.00 0.00 95 1015.5
20260503100109 0 101 1.6 4.8 0.00 0.00 0.00 94 1014.9
20260503081451 0 139 3.2 3.2 0.00 0.00 0.00 94 1014.7
20260503080948 0 126 0.0 3.2 0.00 0.00 0.00 94 1014.7
20260503080439 0 122 0.0 3.2 0.00 0.00 0.00 94 1014.8
20260503072916 0 164 1.6 3.2 0.00 0.00 0.00 93 1014.5
20260503072413 0 89 0.0 3.2 0.00 0.00 0.00 93 1014.5
20260503071909 1 106 0.0 1.6 0.00 0.00 0.00 93 1014.7
20260503071402 1 120 0.0 3.2 0.00 0.00 0.00 93 1014.5
20260503070857 1 140 0.0 3.2 0.00 0.00 0.00 93 1014.6
20260503070355 1 124 0.0 1.6 0.00 0.00 0.00 93 1014.4
20260503060321 1 32 0.0 1.6 0.00 0.00 0.00 87 1014.8
20260503054809 1 135 0.0 1.6 0.00 0.00 0.00 87 1014.9
20260503054304 2 269 0.0 3.2 0.00 0.00 0.00 87 1014.8
20260503053802 2 147 0.0 1.6 0.00 0.00 0.00 87 1014.8
20260503053301 2 269 0.0 1.6 0.00 0.00 0.00 87 1014.8
20260503052756 2 32 0.0 0.0 0.00 0.00 0.00 88 1015.0
20260503052254 2 45 0.0 1.6 0.00 0.00 0.00 88 1014.9
20260503051748 2 44 0.0 1.6 0.00 0.00 0.00 88 1014.9
20260503051246 2 222 0.0 1.6 0.00 0.00 0.00 88 1015.1
20260503050742 2 245 0.0 3.2 0.00 0.00 0.00 88 1015.1
20260503050233 2 78 1.6 3.2 0.00 0.00 0.00 89 1015.1
20260503045731 2 286 0.0 3.2 0.00 0.00 0.00 89 1015.2
20260503045229 2 269 0.0 1.6 0.00 0.00 0.00 89 1015.0
20260503044725 2 279 0.0 1.6 0.00 0.00 0.00 89 1015.0
20260503044222 2 49 0.0 3.2 0.00 0.00 0.00 89 1015.2
20260503043719 2 283 0.0 1.6 0.00 0.00 0.00 88 1015.0
20260503043216 2 25 0.0 3.2 0.00 0.00 0.00 89 1015.3
20260503042712 2 287 0.0 0.0 0.00 0.00 0.00 89 1015.3
20260503042209 2 229 0.0 1.6 0.00 0.00 0.00 88 1015.2
20260503041705 2 31 0.0 1.6 0.00 0.00 0.00 88 1015.1
20260503041203 2 32 0.0 1.6 0.00 0.00 0.00 88 1015.0
20260503040700 2 336 0.0 3.2 0.00 0.00 0.00 87 1015.2
20260503040157 2 38 0.0 1.6 0.00 0.00 0.00 87 1015.2
20260503035654 2 31 0.0 3.2 0.00 0.03 0.03 86 1015.1
20260503035152 2 76 0.0 1.6 0.00 0.03 0.03 86 1015.1
20260503034649 2 44 0.0 1.6 0.00 0.03 0.03 84 1015.2
20260503034146 2 44 0.0 3.2 0.00 0.03 0.03 84 1015.2
20260503033643 2 33 3.2 3.2 0.00 0.03 0.03 83 1015.1
20260503033140 2 55 0.0 0.0 0.00 0.03 0.03 82 1015.1
20260503032639 2 55 0.0 3.2 0.00 0.03 0.03 81 1015.2
20260503032137 3 25 3.2 3.2 0.00 0.03 0.03 79 1015.0
20260503031634 3 40 0.0 3.2 0.00 0.03 0.03 79 1015.2
20260503031132 3 35 0.0 4.8 0.00 0.03 0.03 78 1015.2
20260503030627 3 336 0.0 3.2 0.00 0.03 0.03 79 1015.2
20260503030124 3 309 1.6 3.2 0.00 0.03 0.03 79 1015.1
20260503025620 3 345 0.0 4.8 0.00 0.03 0.03 79 1015.1
20260503025119 3 359 3.2 4.8 0.00 0.03 0.03 78 1015.3
20260503024614 3 345 3.2 4.8 0.00 0.03 0.03 79 1015.3
20260503024106 3 342 1.6 4.8 0.00 0.03 0.03 78 1015.3
20260503023604 3 354 3.2 4.8 0.00 0.03 0.03 78 1015.3
20260503023101 3 356 3.2 4.8 0.00 0.03 0.03 77 1015.3
20260503022556 3 28 4.8 6.4 0.00 0.03 0.03 77 1015.3
20260503022051 3 24 3.2 4.8 0.00 0.03 0.03 77 1015.3
20260503021548 3 23 3.2 4.8 0.00 0.03 0.03 78 1015.3
20260503021045 3 35 3.2 4.8 0.00 0.03 0.03 79 1015.5
20260503020542 3 36 3.2 4.8 0.00 0.03 0.03 79 1015.4
20260503020039 3 2 3.2 4.8 0.00 0.03 0.03 80 1015.4
20260503015536 3 26 3.2 4.8 0.00 0.03 0.03 79 1015.3
20260503015033 3 17 3.2 4.8 0.00 0.03 0.03 79 1015.1
20260503014529 3 45 3.2 6.4 0.00 0.03 0.03 79 1015.4
20260503014027 3 37 3.2 4.8 0.00 0.03 0.03 79 1015.1
20260503013524 3 352 3.2 4.8 0.00 0.03 0.03 78 1015.2
20260503013021 3 20 3.2 4.8 0.00 0.03 0.03 79 1015.3
20260503012513 3 45 1.6 4.8 0.00 0.03 0.03 77 1015.1
20260503012009 4 2 3.2 4.8 0.00 0.03 0.03 78 1015.2
20260503011506 4 22 4.8 6.4 0.00 0.03 0.03 77 1015.1
20260503011004 4 2 1.6 4.8 0.00 0.03 0.03 77 1015.1
20260503010459 4 15 4.8 6.4 0.00 0.03 0.03 77 1015.1
20260503005957 4 343 4.8 6.4 0.00 0.03 0.03 76 1015.1
20260503005454 4 23 3.2 4.8 0.00 0.03 0.03 79 1015.0
20260503004950 4 359 3.2 4.8 0.00 0.03 0.03 76 1015.1
20260503004447 4 0 4.8 4.8 0.00 0.03 0.03 76 1014.9
20260503003945 4 358 4.8 6.4 0.00 0.03 0.03 75 1014.9
20260503003442 4 1 1.6 4.8 0.00 0.03 0.03 75 1014.8
20260503002939 4 4 3.2 4.8 0.00 0.03 0.03 75 1014.7
20260503002436 4 7 1.6 4.8 0.00 0.03 0.03 74 1014.7
20260503001932 4 26 3.2 4.8 0.00 0.03 0.03 75 1014.6
20260503001429 4 56 1.6 3.2 0.00 0.03 0.03 75 1014.7
20260503000927 4 22 3.2 6.4 0.00 0.03 0.03 76 1014.8
20260503000423 4 26 3.2 4.8 0.00 0.03 0.03 76 1014.8
20260502235921 5 17 3.2 4.8 0.00 0.03 0.03 77 1014.5
20260502235417 5 46 4.8 4.8 0.00 0.03 0.03 77 1014.6
20260502234915 5 14 3.2 4.8 0.00 0.03 0.03 78 1014.4
20260502234411 5 350 4.8 4.8 0.00 0.03 0.03 78 1014.6
20260502233908 5 1 3.2 4.8 0.00 0.03 0.03 79 1014.5
20260502233404 5 10 0.0 3.2 0.00 0.03 0.03 79 1014.5
20260502232901 5 124 0.0 3.2 0.00 0.03 0.03 80 1014.3
20260502232357 5 63 3.2 3.2 0.00 0.03 0.03 79 1014.4
20260502231854 5 8 1.6 3.2 0.00 0.03 0.03 78 1014.5
20260502231352 5 345 0.0 4.8 0.00 0.03 0.03 78 1014.5
20260502230850 5 21 3.2 4.8 0.00 0.03 0.03 77 1014.3
20260502230348 5 53 4.8 6.4 0.00 0.03 0.03 77 1014.4
20260502225844 5 25 3.2 4.8 0.00 0.03 0.03 77 1014.5
20260502225341 5 32 3.2 4.8 0.00 0.03 0.03 77 1014.6
20260502224838 5 55 1.6 6.4 0.00 0.03 0.03 77 1014.5
20260502224334 5 46 1.6 4.8 0.00 0.03 0.03 78 1014.7
20260502223832 5 351 3.2 4.8 0.00 0.03 0.03 77 1014.4
20260502223329 5 71 3.2 6.4 0.00 0.03 0.03 76 1014.6
20260502222827 5 38 4.8 6.4 0.00 0.03 0.03 76 1014.5
20260502222325 5 32 4.8 8.0 0.00 0.03 0.03 76 1014.6
20260502221820 5 343 0.0 4.8 0.00 0.03 0.03 76 1014.6
20260502221316 5 27 3.2 4.8 0.00 0.03 0.03 77 1014.4
20260502220813 5 4 3.2 4.8 0.00 0.03 0.03 75 1014.6
20260502220303 5 36 4.8 8.0 0.00 0.03 0.03 73 1014.5
20260502215800 5 23 3.2 8.0 0.00 0.03 0.03 76 1014.6
20260502215257 5 67 1.6 4.8 0.00 0.03 0.03 78 1014.6
20260502214755 5 346 4.8 4.8 0.00 0.03 0.03 78 1014.4
20260502214251 5 1 4.8 9.7 0.00 0.03 0.03 76 1014.3
20260502213748 5 337 6.4 12.9 0.00 0.03 0.03 77 1014.4
20260502213246 5 28 4.8 9.7 0.00 0.03 0.03 76 1014.3
20260502212744 5 20 4.8 8.0 0.00 0.03 0.03 73 1014.4
20260502212242 5 21 4.8 8.0 0.00 0.03 0.03 75 1014.3
20260502211738 5 27 4.8 9.7 0.00 0.03 0.03 73 1014.2
20260502211235 6 9 6.4 8.0 0.00 0.03 0.03 76 1014.2
20260502210732 5 24 3.2 6.4 0.00 0.03 0.03 75 1014.0
20260502210229 5 31 3.2 6.4 0.00 0.03 0.03 78 1014.0
20260502205727 5 2 6.4 8.0 0.00 0.03 0.03 76 1013.8
20260502205222 5 355 3.2 9.7 0.00 0.03 0.03 76 1014.2
20260502204720 5 13 3.2 4.8 0.00 0.03 0.03 78 1013.9
20260502204217 5 30 3.2 8.0 0.00 0.03 0.03 77 1014.2
20260502203715 5 4 3.2 6.4 0.00 0.03 0.03 78 1014.0
20260502203212 5 38 4.8 9.7 0.00 0.03 0.03 79 1014.0
20260502202706 5 42 8.0 11.3 0.00 0.03 0.03 81 1013.9
20260502202205 4 31 4.8 11.3 0.00 0.03 0.03 82 1014.2
20260502201702 5 18 4.8 8.0 0.00 0.03 0.03 83 1014.3
20260502201159 4 16 4.8 9.7 0.00 0.03 0.03 82 1014.3
20260502200654 5 15 4.8 12.9 0.00 0.03 0.03 83 1014.0
20260502200151 5 286 3.2 6.4 0.00 0.03 0.03 82 1014.0
20260502195649 4 47 3.2 8.0 0.00 0.03 0.03 82 1014.3
20260502195145 4 17 4.8 6.4 0.00 0.03 0.03 81 1014.3
20260502194642 5 8 6.4 8.0 0.00 0.03 0.03 80 1014.0
20260502194139 5 43 1.6 4.8 0.00 0.03 0.03 80 1014.3
20260502193635 5 329 6.4 8.0 0.00 0.03 0.03 80 1014.4
20260502193132 5 321 3.2 6.4 0.00 0.03 0.03 82 1014.4
20260502192628 5 41 4.8 8.0 0.00 0.03 0.03 81 1014.3
20260502192126 5 9 1.6 9.7 0.00 0.03 0.03 80 1014.5
20260502191622 5 323 4.8 11.3 0.00 0.03 0.03 81 1014.3
20260502191120 5 347 4.8 8.0 0.00 0.03 0.03 82 1014.5